[[{"header":{"parameterUnit":"m.s-1","parameterCategory":1,"la1":30.2991,"la2":30.254,"lo1":-89.0895,"lo2":-89.0444,"dy":0.0017,"dx":0.0017,"nx":28,"ny":28,"refTime":"2023-08-03T21:00:00:Z","depth":0,"parameterNumber":2,"parameterNumberName":"U-component_of_WINDS"},"data":[0,0,0,0,0,0,0,0,0,0,0,0,0,0,0,0,0,0,0,0,0,0,0,0,0,0,0,0,0,0,0,0,0,0,0,0,0,0,0,0,0,0,0,0,0,0,0,0,0,0,0,0,0,0,0,0,0,0,-0.7554,-0.7553,0,-0.7531,-0.7531,-0.753,-0.7468,-0.7466,-0.7465,-0.7464,-0.7442,-0.7442,-0.7443,0,0,0,0,0,0,0,0,0,0,0,0,0,-0.7544,-0.7545,-0.7554,-0.7553,-0.7553,-0.7531,-0.7531,-0.753,-0.7468,-0.7466,-0.7465,-0.7463,-0.7441,-0.7442,-0.7443,0,0,0,0,0,0,0,0,0,0,0,0,0,-0.7538,-0.7545,-0.7554,-0.7519,-0.7516,-0.7531,-0.7531,-0.753,-0.7468,-0.7466,-0.7464,-0.7462,-0.7441,-0.7442,-0.7443,-0.749,0,0,-0.7446,-0.7447,0,0,0,0,0,0,0,0,-0.7538,-0.7538,-0.7524,-0.7522,-0.7518,-0.75,-0.7519,-0.7517,-0.7469,-0.7486,-0.7464,-0.7461,-0.7463,-0.7462,-0.7462,-0.7489,-0.7488,-0.7446,-0.7447,-0.7447,-0.7448,0,0,0,0,0,0,0,-0.7539,-0.7539,-0.7545,-0.7524,-0.752,-0.7505,-0.7502,-0.7519,-0.7486,-0.7485,-0.748,-0.7478,-0.7461,-0.7461,-0.7461,-0.7488,-0.7446,-0.7447,-0.7448,-0.7448,-0.7553,-0.7555,0,0,0,0,0,0,-0.7544,-0.754,-0.7545,-0.7544,-0.7523,-0.7507,-0.7504,-0.7508,-0.7486,-0.7481,-0.748,-0.7475,-0.7461,-0.746,-0.746,-0.7513,-0.7447,-0.7448,-0.7449,-0.7551,-0.7553,-0.7556,0,0,0,0,0,0,-0.7544,-0.7545,-0.7546,-0.754,-0.7539,-0.7509,-0.7515,-0.7508,-0.7509,-0.7482,-0.7476,-0.7486,-0.7459,-0.7459,-0.7483,-0.7512,-0.7449,-0.745,-0.7548,-0.7552,-0.7554,-0.7621,0,0,0,0,0,0,-0.7544,-0.7545,-0.7562,-0.7541,-0.754,-0.7569,-0.7517,-0.7509,-0.7511,-0.7505,-0.7487,-0.7482,-0.7457,-0.7482,-0.7484,-0.7512,-0.7451,-0.7545,-0.755,-0.7553,-0.7616,-0.7626,-0.7634,0,0,0,0,0,-0.7544,-0.7582,-0.7564,-0.7565,-0.7561,-0.7571,-0.757,-0.7541,-0.7513,-0.753,-0.7514,-0.7483,-0.7509,-0.7485,-0.7487,-0.7516,-0.7543,-0.7548,-0.7553,-0.7612,-0.7624,-0.7634,0,0,0,0,0,0,-0.7608,-0.7579,-0.7558,-0.759,-0.7584,-0.756,-0.7581,-0.7555,-0.7556,-0.755,-0.7514,-0.751,-0.754,-0.753,-0.7504,-0.756,-0.7521,-0.7527,-0.7565,-0.7576,-0.7585,-0.7586,-0.7451,0,0,0,0,0,-0.7626,-0.7636,-0.761,-0.7642,-0.7639,-0.7611,-0.7615,-0.7592,-0.7584,-0.7581,-0.7566,-0.7559,-0.7566,-0.7571,-0.7575,-0.7615,-0.761,-0.7636,-0.7645,-0.7653,-0.7657,-0.7677,-0.7688,-0.7572,-0.7572,-0.7572,0,0,-0.7662,-0.7648,-0.7657,-0.7654,-0.7646,-0.7658,-0.7609,-0.7624,-0.7632,-0.7583,-0.7605,-0.7594,-0.7584,-0.7616,-0.763,-0.7609,-0.7689,-0.7659,-0.7665,-0.7666,-0.7683,-0.7694,-0.7704,-0.7575,-0.7574,-0.7574,0,0,-0.7735,-0.7726,-0.775,-0.7744,-0.7733,-0.7714,-0.772,-0.7701,-0.7692,-0.7713,-0.7677,-0.7687,-0.7699,-0.7693,-0.7692,-0.7765,-0.7736,-0.7768,-0.7816,-0.7836,-0.7845,-0.7853,-0.7878,-0.7887,-0.7773,-0.7773,-0.7773,0,-0.7782,-0.7798,-0.7767,-0.7784,-0.7784,-0.774,-0.7765,-0.7761,-0.7752,-0.7753,-0.7731,-0.7745,-0.7736,-0.7766,-0.7784,-0.7785,-0.779,-0.7769,-0.7846,-0.7854,-0.7861,-0.7884,-0.7894,-0.7777,-0.7777,-0.7776,-0.7776,0,-0.7857,-0.7868,-0.789,-0.7882,-0.7885,-0.7906,-0.7878,-0.7885,-0.7863,-0.7847,-0.787,-0.7857,-0.7858,-0.7864,-0.7844,-0.7892,-0.7879,-0.7852,-0.7812,-0.7876,-0.7897,-0.7906,-0.7782,-0.7781,-0.778,-0.7779,0,0,-0.7967,-0.7942,-0.795,-0.7946,-0.7932,-0.794,-0.796,-0.7961,-0.7967,-0.7964,-0.7979,-0.7991,-0.7966,-0.7965,-0.7943,-0.7961,-0.8019,-0.7931,-0.7931,-0.7947,-0.807,-0.809,-0.8101,-0.8,-0.8002,-0.8003,-0.8071,0,-0.8034,-0.8065,-0.8038,-0.8075,-0.8085,-0.8045,-0.8062,-0.8056,-0.8042,-0.8049,-0.8034,-0.8042,-0.8009,-0.8008,-0.8024,-0.8008,-0.8043,-0.8003,-0.8014,-0.8015,-0.8016,-0.8112,-0.8132,-0.8196,-0.8079,-0.808,-0.8081,0,-0.8116,-0.8116,-0.8154,-0.8137,-0.814,-0.8156,-0.8155,-0.8163,-0.8155,-0.8143,-0.8143,-0.8117,-0.8135,-0.8098,-0.8123,-0.8096,-0.81,-0.8093,-0.8095,-0.8093,-0.805,-0.8111,-0.8216,-0.8225,-0.8095,-0.8093,-0.8093,0,-0.8191,-0.8201,-0.8224,-0.8222,-0.8204,-0.8215,-0.8209,-0.8198,-0.8201,-0.8201,-0.8202,-0.8205,-0.8206,-0.8208,-0.8184,-0.8159,-0.8212,-0.8172,-0.8203,-0.8203,-0.8214,-0.8213,-0.8319,-0.8219,-0.8219,-0.8219,-0.8219,0,-0.8269,-0.8293,-0.8257,-0.8271,-0.8298,-0.8267,-0.8294,-0.8283,-0.8275,-0.8287,-0.8254,-0.8265,-0.8233,-0.8242,-0.8223,-0.8246,-0.8248,-0.8239,-0.8233,-0.8241,-0.8241,-0.8241,-0.8235,-0.8221,-0.8221,-0.822,-0.822,0,-0.8355,-0.8333,-0.8355,-0.8337,-0.8333,-0.8353,-0.8336,-0.8349,-0.8334,-0.8349,-0.8351,-0.8327,-0.8336,-0.8312,-0.8317,-0.8305,-0.8338,-0.8326,-0.834,-0.8336,-0.8367,-0.8364,-0.8475,-0.8487,-0.8382,-0.8383,-0.8384,0,-0.8405,-0.8422,-0.8406,-0.8411,-0.8406,-0.8415,-0.8418,-0.839,-0.8394,-0.8387,-0.84,-0.8406,-0.8409,-0.8425,-0.8408,-0.8412,-0.8399,-0.8438,-0.8399,-0.8406,-0.8398,-0.8396,-0.8398,-0.8445,-0.8446,-0.8447,-0.8448,0,-0.8495,-0.8483,-0.8488,-0.8489,-0.8493,-0.8493,-0.8491,-0.8497,-0.8467,-0.8474,-0.8482,-0.8485,-0.849,-0.8497,-0.8497,-0.849,-0.8464,-0.8461,-0.8468,-0.8474,-0.8481,-0.8477,-0.836,-0.8458,-0.8457,-0.8456,-0.8456,-0.8455,-0.8563,-0.8577,-0.8567,-0.8574,-0.857,-0.8568,-0.8579,-0.8566,-0.8572,-0.8574,-0.8558,-0.857,-0.8562,-0.856,-0.8556,-0.8566,-0.8548,-0.8558,-0.8561,-0.8563,-0.8568,-0.8482,-0.8566,-0.8566,-0.8565,-0.8565,-0.8565,0,-0.865,-0.8642,-0.8649,-0.8647,-0.8652,-0.8628,-0.8625,-0.8631,-0.8642,-0.8637,-0.8641,-0.8651,-0.8658,-0.8642,-0.8646,-0.8656,-0.8645,-0.8658,-0.8656,-0.8655,-0.8584,-0.8577,-0.8668,-0.8668,-0.8668,-0.8668,-0.8668,-0.8668,-0.8695,-0.8717,-0.8705,-0.8724,-0.8717,-0.8728,-0.8728,-0.8727,-0.8723,-0.8736,-0.8741,-0.8731,-0.8722,-0.8725,-0.873,-0.8726,-0.8728,-0.8745,-0.8737,-0.867,-0.866,-0.865,-0.8643,-0.8747,-0.8747,-0.8806,-0.8807,-0.8807]},{"header":{"parameterUnit":"m.s-1","parameterCategory":1,"la1":30.2991,"la2":30.254,"lo1":-89.0895,"lo2":-89.0444,"dy":0.0017,"dx":0.0017,"nx":28,"ny":28,"refTime":"2023-08-03T21:00:00:Z","depth":0,"parameterNumber":3,"parameterNumberName":"V-component_of_WINDS"},"data":[0,0,0,0,0,0,0,0,0,0,0,0,0,0,0,0,0,0,0,0,0,0,0,0,0,0,0,0,0,0,0,0,0,0,0,0,0,0,0,0,0,0,0,0,0,0,0,0,0,0,0,0,0,0,0,0,0,0,0.1489,0.1488,0,0.1408,0.1407,0.1407,0.1397,0.1398,0.1399,0.14,0.1313,0.131,0.1307,0,0,0,0,0,0,0,0,0,0,0,0,0,0.1633,0.163,0.1489,0.1488,0.1487,0.1409,0.1407,0.1406,0.1397,0.1398,0.1399,0.14,0.1314,0.131,0.1306,0,0,0,0,0,0,0,0,0,0,0,0,0,0.1563,0.1629,0.149,0.1473,0.1471,0.1409,0.1407,0.1406,0.1397,0.1398,0.1399,0.14,0.1315,0.1311,0.1306,0.1253,0,0,0.1292,0.129,0,0,0,0,0,0,0,0,0.1567,0.1557,0.1477,0.1474,0.1472,0.1414,0.1426,0.1355,0.1396,0.1425,0.14,0.1401,0.1345,0.1338,0.132,0.1249,0.1245,0.1291,0.1289,0.1287,0.1285,0,0,0,0,0,0,0,0.1572,0.1561,0.1457,0.1476,0.1472,0.1469,0.146,0.1412,0.1379,0.1422,0.1422,0.1412,0.1344,0.1325,0.1318,0.1244,0.1292,0.1288,0.1285,0.1283,0.1125,0.1123,0,0,0,0,0,0,0.158,0.1565,0.146,0.1455,0.1523,0.1465,0.1456,0.1431,0.138,0.1373,0.1411,0.1412,0.1332,0.1324,0.1315,0.1249,0.1287,0.1282,0.128,0.1126,0.1124,0.1123,0,0,0,0,0,0,0.1583,0.1571,0.1463,0.151,0.1496,0.1462,0.1434,0.1429,0.141,0.1371,0.1365,0.1398,0.1333,0.1322,0.1269,0.1246,0.128,0.1276,0.1128,0.1126,0.1124,0.1118,0,0,0,0,0,0,0.1587,0.1572,0.1552,0.1509,0.1493,0.1419,0.1433,0.1427,0.1402,0.1403,0.1357,0.1351,0.1333,0.1276,0.1264,0.124,0.1273,0.113,0.1127,0.1124,0.112,0.1115,0.1112,0,0,0,0,0,0.1592,0.1553,0.1551,0.1538,0.1468,0.1418,0.1408,0.139,0.1401,0.138,0.1355,0.1352,0.1251,0.127,0.1257,0.1232,0.1131,0.1128,0.1125,0.1121,0.1116,0.1112,0,0,0,0,0,0,0.1592,0.1547,0.1544,0.149,0.1458,0.1416,0.139,0.1385,0.1348,0.135,0.1327,0.1317,0.1265,0.1243,0.1266,0.1178,0.1192,0.1186,0.1194,0.1189,0.1185,0.1191,0.1269,0,0,0,0,0,0.1586,0.155,0.1512,0.1468,0.1452,0.1424,0.1401,0.139,0.1355,0.1341,0.1312,0.1278,0.1238,0.1212,0.1174,0.1117,0.1106,0.1093,0.1089,0.1086,0.1081,0.1049,0.1042,0.1112,0.1112,0.1112,0,0,0.1572,0.1543,0.1522,0.1467,0.1441,0.1403,0.1412,0.1372,0.1343,0.1334,0.1283,0.1261,0.1221,0.1166,0.114,0.1146,0.1059,0.1082,0.108,0.1076,0.1045,0.1038,0.1032,0.111,0.1111,0.1111,0,0,0.1528,0.1503,0.1463,0.1437,0.1398,0.138,0.137,0.1329,0.1315,0.1263,0.1256,0.1221,0.1153,0.1125,0.1102,0.1048,0.1043,0.1036,0.1015,0.0984,0.0979,0.0974,0.0954,0.0947,0.1031,0.1031,0.1031,0,0.1516,0.146,0.1443,0.1403,0.1379,0.1371,0.133,0.1305,0.1255,0.1238,0.1245,0.1161,0.1133,0.1071,0.1058,0.104,0.1027,0.1041,0.0981,0.0976,0.0971,0.0952,0.0944,0.103,0.1031,0.1031,0.1031,0,0.1446,0.1408,0.138,0.1333,0.1306,0.1266,0.1242,0.1216,0.1207,0.1188,0.1135,0.1102,0.1057,0.1041,0.1032,0.0978,0.0983,0.0986,0.1,0.0964,0.0945,0.0938,0.1029,0.103,0.103,0.103,0,0,0.1399,0.1344,0.1334,0.1313,0.1269,0.1238,0.1197,0.1154,0.1132,0.1098,0.1062,0.1006,0.1009,0.0983,0.097,0.0943,0.0902,0.095,0.0949,0.0941,0.0839,0.0836,0.0828,0.0899,0.0898,0.0897,0.0843,0,0.1349,0.1277,0.1261,0.1199,0.1162,0.1155,0.1119,0.1088,0.1069,0.1034,0.1013,0.0973,0.098,0.0964,0.0937,0.0913,0.0881,0.0917,0.0864,0.0863,0.0874,0.0818,0.0815,0.0765,0.0835,0.0834,0.0833,0,0.1281,0.1247,0.1181,0.1143,0.1127,0.1095,0.1054,0.1022,0.0986,0.0974,0.0946,0.0936,0.0892,0.0909,0.0848,0.0872,0.085,0.0835,0.0832,0.0826,0.0845,0.0809,0.0749,0.0742,0.0822,0.0823,0.0823,0,0.1252,0.1189,0.1142,0.1124,0.1078,0.1056,0.1036,0.1001,0.0977,0.0941,0.0924,0.0883,0.0861,0.0829,0.0808,0.0822,0.0748,0.0763,0.0736,0.0736,0.0719,0.072,0.0654,0.0707,0.0707,0.0707,0.0707,0,0.1197,0.1157,0.1128,0.1099,0.1054,0.1035,0.0991,0.097,0.094,0.0906,0.0896,0.0864,0.084,0.0804,0.0787,0.0738,0.0728,0.0717,0.0712,0.0717,0.0718,0.0701,0.0703,0.0705,0.0706,0.0706,0.0706,0,0.1156,0.1135,0.1083,0.1045,0.1034,0.1002,0.0969,0.094,0.0921,0.0878,0.0867,0.0837,0.0794,0.0771,0.0717,0.0706,0.0651,0.0649,0.0663,0.0661,0.0635,0.0637,0.0554,0.0542,0.0604,0.0604,0.0603,0,0.1122,0.1092,0.105,0.1028,0.1007,0.097,0.0945,0.0926,0.0901,0.0858,0.0834,0.0791,0.0756,0.0688,0.066,0.0619,0.0616,0.0589,0.0609,0.0615,0.0614,0.0616,0.0612,0.0585,0.0585,0.0584,0.0584,0,0.1064,0.1055,0.1021,0.0982,0.0953,0.0921,0.089,0.0872,0.0847,0.0818,0.0776,0.0748,0.0694,0.0651,0.0608,0.0586,0.058,0.0578,0.057,0.0573,0.0582,0.0576,0.0653,0.058,0.058,0.0581,0.0581,0.0581,0.1025,0.0997,0.0964,0.0925,0.09,0.0871,0.0842,0.082,0.0785,0.074,0.0731,0.0685,0.065,0.0592,0.0569,0.0532,0.0537,0.0524,0.0521,0.0518,0.0517,0.0589,0.0524,0.0524,0.0524,0.0524,0.0524,0,0.0965,0.0944,0.0909,0.0866,0.0835,0.0835,0.08,0.0774,0.0735,0.0704,0.0669,0.062,0.0579,0.0549,0.0506,0.0483,0.0479,0.0472,0.0473,0.0468,0.0515,0.0526,0.0476,0.0476,0.0476,0.0476,0.0476,0.0476,0.0931,0.0884,0.0871,0.0811,0.079,0.0746,0.0727,0.07,0.0675,0.062,0.0586,0.0568,0.0537,0.0492,0.0454,0.0446,0.043,0.0424,0.0415,0.046,0.0465,0.047,0.048,0.0421,0.0421,0.0371,0.0371,0.037]}]]